GW1975 Weather Reports


Display with metric or nautical units.
time (UTC)temp
F
wind
direction
speed
MPH
gust
MPH
rain 1hr
in
rain 24hr
in
rain mn
in
humidity
%
barometer
mb
20260902214735 99 237 2.0 2.0 0.00 0.00 0.00 36 1015.0
20260902214235 99 225 4.0 4.0 0.00 0.00 0.00 36 1014.0
20260902213736 99 239 5.0 5.0 0.00 0.00 0.00 38 1014.0
20260902213235 98 198 2.0 4.0 0.00 0.00 0.00 37 1015.0
20260902212735 99 219 2.0 5.0 0.00 0.00 0.00 37 1015.0
20260902212236 99 170 0.0 4.0 0.00 0.00 0.00 36 1015.0
20260902211736 98 253 2.0 5.0 0.00 0.00 0.00 37 1015.0
20260902211235 98 241 3.0 4.0 0.00 0.00 0.00 37 1015.0
20260902210736 98 237 1.0 4.0 0.00 0.00 0.00 39 1015.0
20260902210235 98 256 2.0 4.0 0.00 0.00 0.00 38 1015.0
20260902205735 98 227 3.0 4.0 0.00 0.00 0.00 38 1015.0
20260902205235 98 223 2.0 3.0 0.00 0.00 0.00 38 1015.0
20260902204735 98 273 3.0 3.0 0.00 0.00 0.00 36 1015.0
20260902204238 99 233 3.0 3.0 0.00 0.00 0.00 36 1015.0
20260902203735 99 234 2.0 4.0 0.00 0.00 0.00 36 1015.0
20260902203235 98 201 2.0 6.0 0.00 0.00 0.00 36 1015.0
20260902202736 99 264 2.0 3.0 0.00 0.00 0.00 37 1015.0
20260902202235 99 232 2.0 4.0 0.00 0.00 0.00 37 1015.0
20260902201736 98 237 3.0 5.0 0.00 0.00 0.00 38 1015.0
20260902201235 98 261 5.0 5.0 0.00 0.00 0.00 38 1016.0
20260902200735 98 277 6.0 6.0 0.00 0.00 0.00 39 1016.0
20260902200237 97 235 3.0 7.0 0.00 0.00 0.00 39 1016.0
20260902195739 98 267 4.0 6.0 0.00 0.00 0.00 39 1016.0
20260902195236 98 172 3.0 3.0 0.00 0.00 0.00 39 1016.0
20260902194735 98 262 2.0 3.0 0.00 0.00 0.00 39 1016.0
20260902194235 98 249 4.0 4.0 0.00 0.00 0.00 39 1016.0
20260902193736 98 244 2.0 3.0 0.00 0.00 0.00 39 1016.0
20260902193235 98 207 2.0 6.0 0.00 0.00 0.00 39 1016.0
20260902192735 98 166 2.0 3.0 0.00 0.00 0.00 39 1016.0
20260902192236 98 244 3.0 6.0 0.00 0.00 0.00 38 1016.0
20260902191744 97 116 1.0 3.0 0.00 0.00 0.00 42 1016.0
20260902191235 97 256 2.0 3.0 0.00 0.00 0.00 42 1016.0
20260902190735 97 271 6.0 6.0 0.00 0.00 0.00 42 1016.0
20260902190235 96 264 4.0 4.0 0.00 0.00 0.00 42 1016.0
20260902185735 96 265 3.0 8.0 0.00 0.00 0.00 41 1016.0
20260902185235 96 242 3.0 4.0 0.00 0.00 0.00 42 1016.0
20260902184735 97 248 5.0 5.0 0.00 0.00 0.00 41 1016.0
20260902184236 96 254 2.0 5.0 0.00 0.00 0.00 41 1016.0
20260902183250 96 245 7.0 7.0 0.00 0.00 0.00 45 1017.0
20260902182735 96 246 3.0 6.0 0.00 0.00 0.00 44 1016.0
20260902182235 96 272 1.0 4.0 0.00 0.00 0.00 44 1017.0
20260902181735 95 221 2.0 4.0 0.00 0.00 0.00 44 1017.0
20260902181235 95 239 2.0 5.0 0.00 0.00 0.00 45 1017.0
20260902180738 95 236 2.0 7.0 0.00 0.00 0.00 45 1017.0
20260902180236 95 257 3.0 7.0 0.00 0.00 0.00 45 1017.0
20260902175736 95 256 2.0 4.0 0.00 0.00 0.00 46 1017.0
20260902175237 95 252 3.0 4.0 0.00 0.00 0.00 47 1017.0
20260902174736 94 274 3.0 4.0 0.00 0.00 0.00 47 1017.0
20260902174235 94 248 4.0 5.0 0.00 0.00 0.00 47 1017.0
20260902173736 94 239 3.0 6.0 0.00 0.00 0.00 48 1017.0
20260902173235 94 246 5.0 6.0 0.00 0.00 0.00 48 1017.0
20260902172735 94 266 2.0 4.0 0.00 0.00 0.00 48 1017.0
20260902172236 94 262 3.0 7.0 0.00 0.00 0.00 48 1018.0
20260902171736 94 261 4.0 7.0 0.00 0.00 0.00 47 1018.0
20260902171237 94 243 4.0 8.0 0.00 0.00 0.00 48 1017.0
20260902170735 94 227 6.0 7.0 0.00 0.00 0.00 48 1017.0
20260902170235 94 262 3.0 7.0 0.00 0.00 0.00 47 1017.0
20260902165736 94 255 6.0 6.0 0.00 0.00 0.00 47 1018.0
20260902165236 94 292 4.0 6.0 0.00 0.00 0.00 47 1018.0
20260902164737 94 251 3.0 5.0 0.00 0.00 0.00 48 1018.0
20260902164235 93 234 3.0 5.0 0.00 0.00 0.00 48 1018.0
20260902163737 93 237 5.0 6.0 0.00 0.00 0.00 47 1018.0
20260902163237 93 245 3.0 9.0 0.00 0.00 0.00 47 1018.0
20260902162735 93 291 3.0 4.0 0.00 0.00 0.00 48 1018.0
20260902162237 93 247 3.0 6.0 0.00 0.00 0.00 47 1018.0
20260902161736 93 275 2.0 9.0 0.00 0.00 0.00 47 1018.0
20260902161236 93 260 5.0 8.0 0.00 0.00 0.00 47 1018.0
20260902160736 93 242 4.0 7.0 0.00 0.00 0.00 48 1018.0
20260902160235 92 255 2.0 5.0 0.00 0.00 0.00 48 1018.0
20260902155735 92 254 6.0 6.0 0.00 0.00 0.00 49 1018.0
20260902155235 92 234 3.0 5.0 0.00 0.00 0.00 50 1018.0
20260902154736 91 257 6.0 6.0 0.00 0.00 0.00 50 1018.0
20260902154235 91 248 3.0 5.0 0.00 0.00 0.00 51 1018.0
20260902153742 91 234 3.0 5.0 0.00 0.00 0.00 51 1018.0
20260902153236 91 264 3.0 7.0 0.00 0.00 0.00 51 1018.0
20260902152735 90 278 5.0 8.0 0.00 0.00 0.00 52 1018.0
20260902152235 90 260 2.0 5.0 0.00 0.00 0.00 52 1018.0
20260902151736 90 271 4.0 8.0 0.00 0.00 0.00 52 1018.0
20260902151235 89 263 3.0 7.0 0.00 0.00 0.00 52 1018.0
20260902150735 90 231 7.0 7.0 0.00 0.00 0.00 53 1018.0
20260902150236 89 244 3.0 6.0 0.00 0.00 0.00 52 1018.0
20260902145736 89 266 2.0 7.0 0.00 0.00 0.00 53 1018.0
20260902145239 88 245 4.0 5.0 0.00 0.00 0.00 53 1018.0
20260902144736 89 253 4.0 5.0 0.00 0.00 0.00 54 1018.0
20260902144238 89 240 3.0 5.0 0.00 0.00 0.00 54 1018.0
20260902143736 89 224 3.0 5.0 0.00 0.00 0.00 54 1018.0
20260902143235 88 250 3.0 5.0 0.00 0.00 0.00 55 1018.0
20260902142737 88 237 7.0 7.0 0.00 0.00 0.00 56 1018.0
20260902142235 87 241 4.0 8.0 0.00 0.00 0.00 56 1018.0
20260902141736 87 267 2.0 6.0 0.00 0.00 0.00 56 1018.0
20260902141237 87 257 2.0 5.0 0.00 0.00 0.00 58 1018.0
20260902140735 86 243 2.0 4.0 0.00 0.00 0.00 58 1018.0
20260902140236 86 245 3.0 5.0 0.00 0.00 0.00 58 1018.0
20260902135736 86 242 3.0 5.0 0.00 0.00 0.00 59 1018.0
20260902135235 86 233 3.0 5.0 0.00 0.00 0.00 60 1018.0
20260902134736 85 261 4.0 5.0 0.00 0.00 0.00 60 1018.0
20260902134236 85 235 4.0 5.0 0.00 0.00 0.00 60 1018.0
20260902133736 85 263 3.0 5.0 0.00 0.00 0.00 60 1018.0
20260902133236 85 255 4.0 4.0 0.00 0.00 0.00 61 1018.0
20260902132736 85 240 3.0 3.0 0.00 0.00 0.00 60 1018.0
20260902132236 86 241 2.0 3.0 0.00 0.00 0.00 60 1018.0
20260902131735 85 176 1.0 2.0 0.00 0.00 0.00 62 1018.0
20260902131235 85 247 1.0 2.0 0.00 0.00 0.00 62 1018.0
20260902130736 84 214 2.0 2.0 0.00 0.00 0.00 63 1018.0
20260902130244 83 257 1.0 2.0 0.00 0.00 0.00 65 1018.0
20260902125736 82 236 2.0 2.0 0.00 0.00 0.00 67 1018.0
20260902125235 81 232 0.0 2.0 0.00 0.00 0.00 68 1018.0
20260902124736 81 225 2.0 3.0 0.00 0.00 0.00 69 1018.0
20260902124236 81 197 0.0 2.0 0.00 0.00 0.00 69 1018.0
20260902123736 80 235 1.0 2.0 0.00 0.00 0.00 70 1018.0
20260902123235 80 235 1.0 2.0 0.00 0.00 0.00 70 1018.0
20260902122736 80 234 1.0 2.0 0.00 0.00 0.00 70 1018.0
20260902122235 80 252 1.0 2.0 0.00 0.00 0.00 70 1018.0
20260902121735 80 217 0.0 2.0 0.00 0.00 0.00 69 1018.0
20260902121235 80 233 1.0 2.0 0.00 0.00 0.00 69 1018.0
20260902120738 80 246 1.0 2.0 0.00 0.00 0.00 70 1018.0
20260902120236 80 204 0.0 2.0 0.00 0.00 0.00 70 1018.0
20260902115415 80 232 2.0 2.0 0.00 0.00 0.00 70 1018.0
20260902114735 80 248 1.0 2.0 0.00 0.00 0.00 69 1018.0
20260902114235 80 236 1.0 2.0 0.00 0.00 0.00 70 1017.0
20260902113736 80 242 0.0 1.0 0.00 0.00 0.00 69 1018.0
20260902113235 80 260 1.0 2.0 0.00 0.00 0.00 69 1018.0
20260902112736 80 247 1.0 2.0 0.00 0.00 0.00 69 1017.0
20260902112235 81 242 1.0 2.0 0.00 0.00 0.00 68 1018.0
20260902111735 81 223 1.0 2.0 0.00 0.00 0.00 67 1017.0
20260902111236 81 243 1.0 2.0 0.00 0.00 0.00 67 1017.0
20260902110736 81 228 0.0 2.0 0.00 0.00 0.00 66 1017.0
20260902110236 81 236 3.0 3.0 0.00 0.00 0.00 66 1017.0
20260902105735 81 230 2.0 2.0 0.00 0.00 0.00 66 1017.0
20260902105235 81 243 2.0 2.0 0.00 0.00 0.00 65 1017.0
20260902104735 81 227 2.0 2.0 0.00 0.00 0.00 66 1017.0
20260902104235 81 247 2.0 3.0 0.00 0.00 0.00 66 1017.0
20260902103737 81 236 1.0 2.0 0.00 0.00 0.00 66 1017.0
20260902103235 81 232 2.0 2.0 0.00 0.00 0.00 66 1017.0
20260902102735 81 229 1.0 2.0 0.00 0.00 0.00 66 1017.0
20260902102236 81 239 1.0 2.0 0.00 0.00 0.00 66 1017.0
20260902101735 81 238 3.0 3.0 0.00 0.00 0.00 66 1017.0
20260902101235 82 261 2.0 3.0 0.00 0.00 0.00 66 1017.0
20260902100735 82 250 1.0 2.0 0.00 0.00 0.00 66 1017.0
20260902100235 82 236 1.0 2.0 0.00 0.00 0.00 65 1017.0
20260902095735 81 237 2.0 3.0 0.00 0.00 0.00 65 1017.0
20260902095235 81 261 2.0 3.0 0.00 0.00 0.00 66 1017.0
20260902094736 81 222 0.0 2.0 0.00 0.00 0.00 67 1017.0
20260902094236 81 239 1.0 3.0 0.00 0.00 0.00 67 1017.0
20260902093735 81 239 3.0 3.0 0.00 0.00 0.00 68 1017.0
20260902093235 81 177 1.0 2.0 0.00 0.00 0.00 67 1017.0
20260902092736 81 246 1.0 2.0 0.00 0.00 0.00 68 1017.0
20260902092235 81 246 0.0 3.0 0.00 0.00 0.00 68 1017.0
20260902091736 81 222 1.0 2.0 0.00 0.00 0.00 68 1017.0
20260902091236 80 224 2.0 2.0 0.00 0.00 0.00 69 1017.0
20260902090736 80 228 2.0 2.0 0.00 0.00 0.00 69 1017.0
20260902090236 80 241 1.0 2.0 0.00 0.00 0.00 70 1017.0
20260902085735 80 236 0.0 3.0 0.00 0.00 0.00 71 1017.0
20260902085235 80 258 1.0 2.0 0.00 0.00 0.00 71 1017.0
20260902084735 80 255 0.0 2.0 0.00 0.00 0.00 72 1017.0
20260902084238 80 248 2.0 2.0 0.00 0.00 0.00 72 1017.0
20260902083735 80 243 2.0 2.0 0.00 0.00 0.00 72 1017.0
20260902083236 80 247 1.0 2.0 0.00 0.00 0.00 72 1016.0
20260902082735 80 250 1.0 2.0 0.00 0.00 0.00 72 1017.0
20260902082235 80 225 1.0 2.0 0.00 0.00 0.00 72 1016.0
20260902081735 80 248 1.0 2.0 0.00 0.00 0.00 71 1017.0
20260902081235 80 249 1.0 2.0 0.00 0.00 0.00 71 1017.0
20260902080735 80 236 1.0 2.0 0.00 0.00 0.00 71 1016.0
20260902080235 80 231 2.0 2.0 0.00 0.00 0.00 71 1016.0
20260902075738 80 256 2.0 2.0 0.00 0.00 0.00 71 1017.0
20260902075236 80 232 2.0 2.0 0.00 0.00 0.00 71 1017.0
20260902074735 80 247 1.0 2.0 0.00 0.00 0.00 71 1017.0
20260902074235 80 195 1.0 2.0 0.00 0.00 0.00 71 1017.0
20260902073735 80 180 0.0 2.0 0.00 0.00 0.00 71 1017.0
20260902073235 80 250 2.0 2.0 0.00 0.00 0.00 70 1017.0
20260902072736 81 241 1.0 2.0 0.00 0.00 0.00 70 1017.0
20260902072235 81 248 1.0 2.0 0.00 0.00 0.00 70 1017.0
20260902071736 81 224 2.0 2.0 0.00 0.00 0.00 70 1017.0
20260902071236 81 224 1.0 2.0 0.00 0.00 0.00 70 1017.0
20260902070742 81 223 2.0 2.0 0.00 0.00 0.00 70 1017.0
20260902070235 81 247 2.0 2.0 0.00 0.00 0.00 70 1017.0
20260902065735 81 255 1.0 2.0 0.00 0.00 0.00 70 1017.0
20260902065235 81 208 2.0 2.0 0.00 0.00 0.00 70 1017.0
20260902064735 81 234 1.0 2.0 0.00 0.00 0.00 70 1017.0
20260902064236 81 227 2.0 2.0 0.00 0.00 0.00 70 1017.0
20260902063736 81 229 2.0 2.0 0.00 0.00 0.00 71 1017.0
20260902063237 81 234 1.0 2.0 0.00 0.00 0.00 70 1017.0
20260902062737 81 256 1.0 2.0 0.00 0.00 0.00 70 1017.0
20260902061735 81 256 1.0 2.0 0.00 0.00 0.00 70 1017.0
20260902061235 81 256 1.0 2.0 0.00 0.00 0.00 70 1017.0
20260902060735 81 256 1.0 2.0 0.00 0.00 0.00 70 1017.0
20260902060235 81 256 1.0 2.0 0.00 0.00 0.00 70 1017.0
20260902055737 81 259 1.0 2.0 0.00 0.00 0.00 70 1017.0
20260902055235 81 248 1.0 2.0 0.00 0.00 0.00 70 1017.0
20260902054737 81 249 2.0 2.0 0.00 0.00 0.00 70 1017.0
20260902054235 81 258 1.0 2.0 0.00 0.00 0.00 69 1017.0
20260902053735 81 265 1.0 2.0 0.00 0.00 0.00 69 1017.0
20260902053235 81 248 2.0 2.0 0.00 0.00 0.00 69 1017.0
20260902052736 82 258 1.0 2.0 0.00 0.00 0.00 69 1017.0
20260902052237 82 254 1.0 2.0 0.00 0.00 0.00 68 1017.0
20260902051736 82 233 1.0 2.0 0.00 0.00 0.00 68 1017.0
20260902051235 82 260 2.0 2.0 0.00 0.00 0.00 68 1017.0
20260902050735 82 248 1.0 2.0 0.00 0.00 0.00 67 1017.0
20260902050235 82 237 1.0 2.0 0.00 0.00 0.00 67 1017.0
20260902045735 82 274 1.0 2.0 0.00 0.00 0.00 67 1017.0
20260902045237 82 260 1.0 2.0 0.00 0.00 0.00 67 1017.0
20260902044736 83 234 2.0 2.0 0.00 0.00 0.00 66 1017.0
20260902044236 83 256 1.0 2.0 0.00 0.00 0.00 66 1017.0
20260902043736 83 269 1.0 2.0 0.00 0.00 0.00 66 1017.0
20260902043235 83 217 0.0 2.0 0.00 0.00 0.00 66 1017.0
20260902042735 83 246 0.0 2.0 0.00 0.00 0.00 66 1017.0
20260902042235 83 263 1.0 1.0 0.00 0.00 0.00 66 1017.0
20260902041735 83 248 1.0 2.0 0.00 0.00 0.00 65 1017.0
20260902041235 83 259 1.0 2.0 0.00 0.00 0.00 65 1017.0
20260902040735 83 258 2.0 2.0 0.00 0.00 0.00 64 1017.0
20260902040235 83 259 1.0 2.0 0.00 0.00 0.00 64 1017.0
20260902035744 83 254 1.0 2.0 0.00 0.00 0.00 64 1017.0
20260902035237 83 255 1.0 2.0 0.00 0.00 0.00 63 1017.0
20260902034737 83 264 1.0 2.0 0.00 0.00 0.00 63 1017.0
20260902034235 83 250 0.0 2.0 0.00 0.00 0.00 62 1017.0
20260902033735 84 269 1.0 2.0 0.00 0.00 0.00 61 1017.0
20260902033236 84 264 1.0 2.0 0.00 0.00 0.00 61 1016.0
20260902032740 84 263 1.0 2.0 0.00 0.00 0.00 61 1017.0
20260902032236 84 262 1.0 2.0 0.00 0.00 0.00 60 1017.0
20260902031735 84 254 1.0 2.0 0.00 0.00 0.00 60 1017.0
20260902031235 84 256 1.0 2.0 0.00 0.00 0.00 60 1017.0
20260902030735 84 261 1.0 2.0 0.00 0.00 0.00 59 1016.0
20260902030235 84 269 1.0 2.0 0.00 0.00 0.00 59 1017.0
20260902025736 85 250 1.0 2.0 0.00 0.00 0.00 60 1016.0
20260902025236 85 234 2.0 2.0 0.00 0.00 0.00 59 1017.0
20260902024736 85 257 1.0 2.0 0.00 0.00 0.00 59 1017.0
20260902024235 85 266 1.0 2.0 0.00 0.00 0.00 58 1017.0
20260902023737 85 264 1.0 2.0 0.00 0.00 0.00 58 1017.0
20260902023239 85 252 1.0 2.0 0.00 0.00 0.00 58 1016.0
20260902022737 86 257 1.0 2.0 0.00 0.00 0.00 58 1016.0
20260902022238 86 252 2.0 2.0 0.00 0.00 0.00 58 1016.0
20260902021737 86 269 1.0 2.0 0.00 0.00 0.00 58 1016.0
20260902021235 86 249 1.0 2.0 0.00 0.00 0.00 58 1016.0
20260902020735 86 262 1.0 2.0 0.00 0.00 0.00 57 1016.0
20260902020235 87 255 2.0 2.0 0.00 0.00 0.00 57 1016.0
20260902015735 87 271 2.0 2.0 0.00 0.00 0.00 57 1016.0
20260902015235 87 245 1.0 2.0 0.00 0.00 0.00 56 1016.0
20260902014737 87 236 2.0 3.0 0.00 0.00 0.00 56 1016.0
20260902014237 88 235 2.0 2.0 0.00 0.00 0.00 56 1016.0
20260902013735 88 257 1.0 2.0 0.00 0.00 0.00 55 1016.0
20260902013235 88 237 2.0 2.0 0.00 0.00 0.00 55 1016.0
20260902012738 89 245 2.0 3.0 0.00 0.00 0.00 54 1016.0
20260902012236 89 246 2.0 2.0 0.00 0.00 0.00 54 1016.0
20260902011735 89 248 2.0 2.0 0.00 0.00 0.00 53 1016.0
20260902011236 90 263 1.0 2.0 0.00 0.00 0.00 53 1016.0
20260902010735 90 245 2.0 2.0 0.00 0.00 0.00 52 1016.0
20260902010235 90 236 2.0 2.0 0.00 0.00 0.00 51 1015.0
20260902005735 91 273 1.0 2.0 0.00 0.00 0.00 50 1016.0
20260902005237 91 259 2.0 2.0 0.00 0.00 0.00 49 1015.0
20260902004736 91 244 2.0 2.0 0.00 0.00 0.00 49 1016.0
20260902004236 92 216 1.0 2.0 0.00 0.00 0.00 48 1016.0
20260902003737 92 232 2.0 3.0 0.00 0.00 0.00 48 1015.0
20260902003236 92 233 1.0 2.0 0.00 0.00 0.00 47 1015.0
20260902002736 92 202 1.0 3.0 0.00 0.00 0.00 47 1015.0
20260902002235 93 209 1.0 4.0 0.00 0.00 0.00 46 1015.0
20260902001735 93 214 2.0 3.0 0.00 0.00 0.00 46 1015.0
20260902001236 93 106 0.0 2.0 0.00 0.00 0.00 45 1016.0
20260902000735 94 198 1.0 3.0 0.00 0.00 0.00 45 1015.0
20260902000241 94 199 1.0 3.0 0.00 0.00 0.00 44 1016.0
20260901235736 94 192 2.0 3.0 0.00 0.00 0.00 44 1015.0
20260901235235 95 180 2.0 2.0 0.00 0.00 0.00 44 1016.0
20260901234736 95 180 1.0 2.0 0.00 0.00 0.00 44 1016.0
20260901234236 95 227 2.0 2.0 0.00 0.00 0.00 44 1016.0
20260901233735 95 210 2.0 2.0 0.00 0.00 0.00 44 1016.0
20260901233235 95 214 2.0 3.0 0.00 0.00 0.00 44 1016.0
20260901232735 95 188 2.0 3.0 0.00 0.00 0.00 43 1016.0
20260901232235 95 229 1.0 3.0 0.00 0.00 0.00 43 1016.0
20260901231735 95 242 2.0 3.0 0.00 0.00 0.00 42 1016.0
20260901231237 95 144 2.0 2.0 0.00 0.00 0.00 42 1016.0
20260901230735 96 224 1.0 3.0 0.00 0.00 0.00 41 1016.0
20260901230235 96 229 2.0 3.0 0.00 0.00 0.00 41 1016.0
20260901225736 96 219 2.0 2.0 0.00 0.00 0.00 41 1016.0
20260901225235 96 218 2.0 2.0 0.00 0.00 0.00 40 1016.0
20260901224736 97 186 2.0 2.0 0.00 0.00 0.00 39 1016.0
20260901224235 97 224 1.0 2.0 0.00 0.00 0.00 38 1016.0
20260901223736 97 214 3.0 3.0 0.00 0.00 0.00 38 1016.0
20260901223235 98 214 2.0 2.0 0.00 0.00 0.00 38 1016.0
20260901222736 99 204 3.0 3.0 0.00 0.00 0.00 37 1016.0
20260901222235 99 244 2.0 3.0 0.00 0.00 0.00 37 1016.0
20260901221735 99 239 2.0 2.0 0.00 0.00 0.00 35 1015.0
20260901221237 99 234 3.0 3.0 0.00 0.00 0.00 37 1015.0
20260901220735 98 236 2.0 5.0 0.00 0.00 0.00 36 1015.0
20260901220235 99 248 3.0 3.0 0.00 0.00 0.00 35 1015.0
20260901215735 100 253 2.0 5.0 0.00 0.00 0.00 34 1016.0
20260901215236 99 241 1.0 5.0 0.00 0.00 0.00 35 1016.0